Regional Weather Roundup
Issued by NWS

Home | Current Version | Previous Version | Graphics & Text | Print | Product List | Glossary On
Versions: 1 2 3 4 5 6 7 8 9 10 11 12 13 14 15 16 17 18 19 20 21 22 23 24 25 26 27 28 29 30 31 32 33 34 35 36 37 38 39 40 41 42 43 44 45 46 47 48 49 50
642
ASUS45 KBOU 171907
RWRCO

WEATHER ROUNDUP FOR COLORADO
NATIONAL WEATHER SERVICE DENVER/BOULDER CO
100 PM MDT THU AUG 17 2017

NOTE: "FAIR" INDICATES FEW OR NO CLOUDS BELOW 12000 FEET WITH NO
SIGNIFICANT WEATHER AND/OR OBSTRUCTIONS TO VISIBILITY.

COZ001>005-013-030-031-172000-
...NORTHWEST COLORADO...

CITY           SKY/WX    TMP DP  RH WIND       PRES   REMARKS
CRAIG          FAIR      82  31  15 MISG      30.24F
HAYDEN         FAIR      77  35  21 W14       30.28F
MEEKER         FAIR      79  34  19 VRB5      30.25F
RABBIT EARS PA FAIR      59  37  44 W6        30.53F
STEAMBOAT SPGS NOT AVBL
WALDEN         FAIR      70  32  24 W20G30    30.37S
$$

COZ006>008-011-172000-
...WEST CENTRAL VALLEYS...

CITY           SKY/WX    TMP DP  RH WIND       PRES   REMARKS
GRAND JUNCTION FAIR      84  35  17 VRB3      30.17F
MONTROSE       FAIR      80  39  23 N9        30.24F
EAGLE          FAIR      78  34  20 NW12G17   30.27F
RIFLE          FAIR      84  37  18 VRB6      30.20F
DELTA          FAIR      85  34  16 SW3       30.19F
NUCLA          FAIR      82  27  13 N5        30.28F
$$

COZ017>023-064>068-172000-
...SOUTHWEST COLORADO...

CITY           SKY/WX    TMP DP  RH WIND       PRES   REMARKS
DURANGO        FAIR      77  27  15 VRB3      30.30F
CORTEZ         FAIR      84  26  12 VRB6      30.24F
PAGOSA SPRINGS FAIR      78  21  12 SW14G23   30.37F
TELLURIDE      FAIR      69  25  19 W7        30.49S
WOLF CREEK PAS FAIR      55  32  41 SW10G21   30.70S
$$

COZ009-010-012-014-032>034-037-058>063-172000-
...CENTRAL COLORADO...

CITY           SKY/WX    TMP DP  RH WIND       PRES   REMARKS
ASPEN          FAIR      74  32  21 N8G16     30.34F
BUENA VISTA    CLOUDY    70  30  22 NW15G24   30.35R
COPPER MTN     PTSUNNY   55  32  41 W14       30.64S
BERTHOUD PASS  FAIR      45  41  87 NW26G40   30.63F
COTTONWOOD PAS FAIR      70  21  16 E3        30.49R
GUNNISON       PTSUNNY   71  34  25 VRB7      30.36F
KREMMLING      FAIR      73  34  23 CALM      30.34S
LEADVILLE      FAIR      64  25  22 NW15G25   30.48F
MONARCH PASS   FAIR      54  27  35 W26G37    30.74S
SALIDA         FAIR      79  30  16 SW12G25   30.38F
SUNLIGHT       PTSUNNY   55  32  41 SW7       30.59F
WILKERSON PASS PTSUNNY   61  30  31 CALM      30.62R
$$

COZ069>075-172000-
...SAN LUIS VALLEY/SANGRE DE CRISTO MOUNTAINS...

CITY           SKY/WX    TMP DP  RH WIND       PRES   REMARKS
ALAMOSA        FAIR      75  32  20 VRB6      30.34F
DEL NORTE      FAIR      74  38  27 N9        30.37F
LA VETA PASS   NOT AVBL
SAGUACHE       FAIR      72  36  26 S8        30.36F
$$

COZ035-036-038>040-172000-
...NORTHERN COLORADO FRONT RANGE...

CITY           SKY/WX    TMP DP  RH WIND       PRES   REMARKS
DENVER INTL AP FAIR      84  32  15 VRB7      30.14F
DMNS CITY PARK   N/A     82  35  18 E3G15     30.12F
AURORA         MOSUNNY   83  41  22 CALM      30.16F
FRONT RANGE AP MOSUNNY   84  36  17 W3        30.16F
ERIE MUNI ARPT FAIR      85  31  14 CALM      30.16F
BOULDER MUN AP FAIR      84  36  17 N9G17     30.12F
CENTENNIAL     FAIR      81  35  19 CALM      30.17F
BROOMFIELD     MOSUNNY   84  36  17 N9        30.16F
FORT COLLINS   FAIR      82  44  26 S8        30.11F
LONGMONT       FAIR      85  36  17 SE3       30.12F HAZE
$$

COZ041-046-047-076>085-087-088-172000-
...PIKES PEAK/PALMER DIVIDE AND SOUTHERN FOOTHILLS...

CITY           SKY/WX    TMP DP  RH WIND       PRES   REMARKS
COLO. SPRINGS  FAIR      79  50  36 SE9       30.23F
A. F. ACADEMY  FAIR      79  40  25 S10G18    30.22F
SCHRIEVER AFB  FAIR      76  49  39 SE9       30.23F
CHEYENNE MTN   PTSUNNY   70  49  46 S7        30.23S
ELLICOTT       FAIR     N/A N/A N/A S3        30.21F
FALCON         FAIR      78  42  27 SW12      30.27F
FORT CARSON    FAIR      76  48  37 E5        30.20F
LIMON          FAIR      79  54  41 S6        30.16F
MONUMENT HILL  FAIR      73  37  27 N3        30.29S
CANON CITY     SUNNY     88  39  18 W10G18    30.14F
WALSENBURG     FAIR      84  32  15 W13G18    30.20F
TRINIDAD       FAIR      83  39  21 VRB3      30.20F
$$

COZ042>045-048>051-090-091-172000-
...NORTHEAST COLORADO...

CITY           SKY/WX    TMP DP  RH WIND       PRES   REMARKS
GREELEY ARPT   FAIR      86  49  27 S8        30.10F
AKRON          FAIR      84  42  22 VRB6      30.10F
BURLINGTON     FAIR      82  60  47 S17G24    30.12F
WRAY           NOT AVBL
YUMA           FAIR      82  43  24 S13G20    30.06F
STERLING       FAIR      82  55  39 S7        30.04F
HOLYOKE        FAIR      84  57  39 SW6G16    30.05F
FORT MORGAN    FAIR      85  38  18 SW6       30.09F
$$

COZ086-089-092>099-172000-
...SOUTHEAST COLORADO...

CITY           SKY/WX    TMP DP  RH WIND       PRES   REMARKS
PUEBLO         FAIR      85  49  28 VRB5      30.11F
LA JUNTA       FAIR      85  54  34 SW5G21    30.11F
LAMAR          FAIR      86  59  39 S10G17    30.07F
SPRINGFIELD      N/A     82  60  47 S17G24    30.14F
$$




USA.gov is the U.S. government's official web portal to all federal, state and local government web resources and services.